Погода в Электренае

Литва     54°47′05″N   24°40′01″E
темп.,
°C
ветер,
м/с
пор.,
м/с
влажн.,
%
обл.,
%
осадки,
мм/ч
давл.,
гПа
погр.,
м
24 сентября, пт
пт2400:00+11ююз81695100 3.8 9941046
03:00+11з121789100 11.2 9901228
06:00+7зюз71292100 1.5 9891044
09:00+9сз81491100 5.0 9921275
12:00+10зсз71387100 0.3 9951150
15:00+9зсз71285100 0.5 9971128
18:00+10зсз6128784 0.3 1000883
21:00+9зсз6139253 0.4 1003584
25 сентября, сб
сб2500:00+8з51290100 0.0 1005545
03:00+7зюз41092100 0.0 1006261
06:00+10юз51196100 0.4 1005462
09:00+12зюз61494100 0.6 1005865
12:00+13зюз71492100 0.1 10051096
15:00+15з7138051 0.6 10061360
18:00+14зсз7127832 0.3 1008929
21:00+11зсз5128740 0.4 1012484
26 сентября, вс
вс2600:00+8зсз410950 0.0 1014278
03:00+7зсз35978 0.0 1016116
06:00+6зсз249712 0.0 101879
09:00+8ссз369426 0.0 1020202
12:00+12ссз46655 0.0 1022725
15:00+14ссз45607 0.0 1022981
18:00+13ссз25725 0.0 1022175
21:00+9с22885 0.0 102331
27 сентября, пн
пн2700:00+7ссв22915 0.0 102420
03:00+6всв22944 0.0 102532
06:00+5в23940 0.0 102553
09:00+7в36822 0.0 1026195
12:00+12в34621 0.0 1026687
15:00+14в34562 0.0 10251120
18:00+12в35700 0.0 1026146
21:00+8в35850 0.0 102776
28 сентября, вт
вт2800:00+7вюв34904 0.0 102867
03:00+6в349218 0.0 102865
06:00+7в249329 0.0 102882
09:00+8вюв36885 0.0 1029178
12:00+13вюв356511 0.0 1030701
15:00+13вюв456287 0.0 1030877
18:00+12вюв357431 0.0 1030285
21:00+8вюв35917 0.0 103172